Stations météo

Publicité
Tyndrum, Grande-Bretagne (99020): Température de l'air & dewpoint: 19.06.2018 20:00:00 - 25.06.2018 20:00:00 (BST)Tyndrum, Grande-Bretagne (99020): Quantités de précipitations: 19.06.2018 20:00:00 - 25.06.2018 20:00:00 (BST)
Date & Time tt [°C] td [°C] rr [mm]
25.06.2018 20:00:00 20,2 8,7 0,0
25.06.2018 19:00:00 21,9 6,3 0,0
25.06.2018 18:00:00 22,6 8,7 0,0
25.06.2018 17:00:00 22,6 7,6 0,0
25.06.2018 16:00:00 23,2 5,1 0,0
25.06.2018 15:00:00 23,4 4,7 0,0
25.06.2018 14:00:00 22,7 7,9 0,0
25.06.2018 13:00:00 22,6 7,1 0,0
25.06.2018 12:00:00 21,9 5,7 0,0
25.06.2018 11:00:00 20,5 3,1 0,0
25.06.2018 10:00:00 18,9 6,3 0,0
25.06.2018 09:00:00 16,6 8,6 0,0
25.06.2018 08:00:00 11,0 9,9 0,0
25.06.2018 07:00:00 5,8 5,7 0,0
25.06.2018 06:00:00 3,7 3,3 0,0
25.06.2018 05:00:00 3,5 3,0 0,0
25.06.2018 04:00:00 3,4 2,7 0,0
25.06.2018 03:00:00 3,8 3,0 0,0
25.06.2018 02:00:00 4,3 3,3 0,0
25.06.2018 01:00:00 5,7 4,7 0,0
25.06.2018 00:00:00 7,0 5,2 0,0
24.06.2018 23:00:00 9,4 5,4 0,0
24.06.2018 22:00:00 12,6 8,2 0,0
24.06.2018 21:00:00 15,4 8,9 0,0
24.06.2018 20:00:00 18,7 8,6 0,0
24.06.2018 19:00:00 19,8 7,4 0,0
24.06.2018 18:00:00 20,0 6,2 0,0
24.06.2018 17:00:00 20,5 7,7 0,0
24.06.2018 16:00:00 20,4 7,4 0,0
24.06.2018 15:00:00 20,0 5,8 0,0
24.06.2018 14:00:00 19,2 7,3 0,0
24.06.2018 13:00:00 18,3 9,3 0,0
24.06.2018 12:00:00 16,8 7,0 0,0
24.06.2018 11:00:00 16,1 8,1 0,0
24.06.2018 10:00:00 14,5 8,6 0,0
24.06.2018 09:00:00 12,7 7,4 0,0
24.06.2018 08:00:00 11,0 7,9 0,0
24.06.2018 07:00:00 6,9 6,6 0,0
24.06.2018 06:00:00 5,7 5,0 0,0
24.06.2018 05:00:00 6,4 5,1 0,0
24.06.2018 04:00:00 8,4 6,5 0,0
24.06.2018 03:00:00 10,7 8,6 0,0
24.06.2018 02:00:00 11,0 9,0 0,0
24.06.2018 01:00:00 11,2 9,1 0,0
24.06.2018 00:00:00 11,4 9,1 0,0
23.06.2018 23:00:00 11,7 9,1 0,0
23.06.2018 22:00:00 12,3 9,1 0,0
23.06.2018 21:00:00 12,7 8,8 0,0
23.06.2018 20:00:00 12,9 8,8 0,0
23.06.2018 19:00:00 13,5 9,3 0,0
23.06.2018 18:00:00 14,0 9,2 0,0
23.06.2018 17:00:00 14,3 9,0 0,0
23.06.2018 16:00:00 14,9 9,5 0,0
23.06.2018 15:00:00 15,6 9,3 0,0
23.06.2018 14:00:00 16,5 9,1 0,0
23.06.2018 13:00:00 15,2 7,5 0,0
23.06.2018 12:00:00 14,2 7,0 0,0
23.06.2018 11:00:00 13,9 7,0 0,0
23.06.2018 10:00:00 12,7 7,2 0,0
23.06.2018 09:00:00 12,1 7,0 0,0
23.06.2018 08:00:00 10,9 6,5 0,0
23.06.2018 07:00:00 9,9 6,9 0,0
23.06.2018 06:00:00 9,1 7,7 0,0
23.06.2018 05:00:00 7,4 6,4 0,0
23.06.2018 04:00:00 7,4 6,4 0,0
23.06.2018 03:00:00 6,6 5,7 0,0
23.06.2018 02:00:00 6,0 4,8 0,0
23.06.2018 01:00:00 7,0 5,1 0,0
23.06.2018 00:00:00 8,2 5,5 0,0
22.06.2018 23:00:00 9,7 5,9 0,0
22.06.2018 22:00:00 10,9 5,7 0,0
22.06.2018 21:00:00 11,6 5,7 0,0
22.06.2018 20:00:00 13,3 5,9 0,0
22.06.2018 19:00:00 15,6 6,9 0,0
22.06.2018 18:00:00 16,2 6,7 0,0
22.06.2018 17:00:00 15,2 7,7 0,0
22.06.2018 16:00:00 14,6 8,6 0,0
22.06.2018 15:00:00 15,3 9,0 0,0
22.06.2018 14:00:00 14,1 8,1 0,0
22.06.2018 13:00:00 13,9 7,8 0,0
22.06.2018 12:00:00 14,2 7,4 0,0
22.06.2018 11:00:00 12,6 6,1 0,0
22.06.2018 10:00:00 11,8 5,4 0,0
22.06.2018 09:00:00 11,3 6,0 0,0
22.06.2018 08:00:00 10,1 6,4 0,0
22.06.2018 07:00:00 5,9 5,3 0,0
22.06.2018 06:00:00 5,4 4,7 0,0
22.06.2018 05:00:00 5,2 3,7 0,0
22.06.2018 04:00:00 6,9 5,0 0,0
22.06.2018 03:00:00 7,7 5,3 0,0
22.06.2018 02:00:00 5,9 4,8 0,0
22.06.2018 01:00:00 5,6 4,4 0,0
22.06.2018 00:00:00 7,3 4,7 0,0
21.06.2018 23:00:00 9,2 5,1 0,0
21.06.2018 22:00:00 9,7 5,4 0,0
21.06.2018 21:00:00 10,9 5,3 0,0
21.06.2018 20:00:00 12,9 5,1 0,0
21.06.2018 19:00:00 14,4 4,6 0,0
21.06.2018 18:00:00 14,8 5,3 0,0
21.06.2018 17:00:00 15,0 5,7 0,0
21.06.2018 16:00:00 15,3 5,5 0,0
21.06.2018 15:00:00 15,0 6,4 0,0
21.06.2018 14:00:00 15,4 8,1 0,0
21.06.2018 13:00:00 13,7 5,6 0,0
21.06.2018 12:00:00 14,9 5,3 0,0
21.06.2018 11:00:00 13,4 3,4 0,0
21.06.2018 10:00:00 11,5 4,5 0,0
21.06.2018 09:00:00 10,7 4,4 0,0
21.06.2018 08:00:00 9,5 5,0 0,0
21.06.2018 07:00:00 8,2 5,8 0,0
21.06.2018 06:00:00 7,2 4,9 0,0
21.06.2018 05:00:00 4,6 3,6 0,0
21.06.2018 04:00:00 5,5 4,2 0,0
21.06.2018 03:00:00 5,7 3,9 0,0
21.06.2018 02:00:00 6,3 4,7 0,0
21.06.2018 01:00:00 6,2 5,4 0,4
21.06.2018 00:00:00 6,7 6,0 0,4
20.06.2018 23:00:00 7,0 6,2 2,2
20.06.2018 22:00:00 6,8 6,0 2,6
20.06.2018 21:00:00 8,5 6,7 0,6
20.06.2018 20:00:00 10,2 5,4 0,0
20.06.2018 19:00:00 9,8 6,9 0,6
20.06.2018 18:00:00 11,2 6,1 0,0
20.06.2018 17:00:00 10,9 4,8 0,0
20.06.2018 16:00:00 12,7 5,6 0,0
20.06.2018 15:00:00 12,9 4,2 0,0
20.06.2018 14:00:00 13,5 5,8 0,0
20.06.2018 13:00:00 14,8 7,0 0,0
20.06.2018 12:00:00 13,1 7,6 0,0
20.06.2018 11:00:00 12,1 7,6 0,0
20.06.2018 10:00:00 10,6 7,8 0,0
20.06.2018 09:00:00 10,7 8,7 0,0
20.06.2018 08:00:00 9,4 8,6 0,0
20.06.2018 07:00:00 8,9 8,6 0,4
20.06.2018 06:00:00 8,5 8,2 4,4
20.06.2018 05:00:00 8,4 8,0 2,0
20.06.2018 04:00:00 8,4 7,9 1,4
20.06.2018 03:00:00 8,5 7,7 1,8
20.06.2018 02:00:00 8,9 7,7 1,8
20.06.2018 01:00:00 8,9 7,6 1,8
20.06.2018 00:00:00 8,6 7,4 2,2
19.06.2018 23:00:00 8,6 7,3 0,2
19.06.2018 22:00:00 9,0 8,1 0,2
19.06.2018 21:00:00 9,5 8,5 1,0
19.06.2018 20:00:00 10,0 8,1 1,2

tt = Température de l'air
td = dewpoint
rr = Quantités de précipitations

stations d'obs. à proximité